Location: Engelmannsreuth
(49.8125°N, 11.6497°E)
Time: 19:10:31
(UTC+00:00)

Cosmos 1943 Rocket - Pass Details

Date: 17 February 2020
Orbit: 814 x 842 km, 71.0° (Epoch: 30 March)

Event Time Altitude Azimuth Distance (km) Brightness Sun altitude
Exits shadow 04:31:29 11° 325° (NW) 2,338 4.2 -18.3°
Maximum altitude 04:36:41 59° 247° (WSW) 936 2.1 -17.4°
Drops below altitude 10° 04:42:04 10° 169° (S) 2,398 4.7 -16.6°
Sets 04:44:30 0° 166° (SSE) 3,327 5.5 -16.2°
